LiveATC.Net - Listen to live air traffic control over the Internet!

Find LiveATC Audio Streams


Airport/ARTCC Code

Frequency
(e.g., 124.400, 128.75)
Site-wide search

Browse LiveATC Feeds
LiveATC Coverage Map
Top 50 LiveATC Feeds
Bad Weather Areas

LiveATC FAQ
Offer a LiveATC Feed
Contact LiveATC.net
Press Inquiries

LiveATC on iPhone
LiveATC on Android

Windows Phone
Windows 8/10

LiveATC Mobile
(Mobile browser)

ATC Audio Archives
Interesting Recordings

LiveATC Forums

Home Page
About LiveATC.net
Make a Donation
LiveATC Store

Terms of Use
Privacy Policy

Canadian Air Freqs

AIRMETs/SIGMETs

FAA Airport Status
Nat'l Airspace Status
Arrival Demand Charts


Server Software By:
Icecast.org
Liquidsoap

Select an area of interest:
U.S. Feeds: Class B Airports | Class C Airports | Class D/Other Airports | ARTCC (Centers)
International Feeds: Canada | Europe | Oceania | Asia | South America | North/Central America | Africa
Misc Feeds: HF Feeds
Search by ICAO/IATA airport code:   (e.g., kbos, kjfk, lax, eham, etc.)


Currently Available Live Feeds: 1566
Status Updated: Tue Dec 06 2016 19:56:01 UTC


NOTICE

Unauthorized use prohibited. See LiveATC.net Terms of Service

Africa Airport Feeds

 

FIMP Twr/App/Ctr #1 (Archives)
Plaine Magnien, Mauritius

Feed Status: UP

Click on your favorite media player to listen:
Listen with WinAmp to FIMP Twr/App/Ctr #1  Listen with iTunes to FIMP Twr/App/Ctr #1  Click here to listen if using Real Player  Click here to listen if using Windows Media Player

Or simply listen in your browser:

Listen right in your browser(in browser, requires Flash)

FIMP 061800Z 12005KT 9999 BKN017 24/19 Q1018


Listeners: 1 out of 1093 total

FIMP Approach: 119.100
FIMP Tower: 118.100
FMEE Approach/Departure: 127.200
Mauritius Centre: 129.300

FIMP Twr/App/Ctr #2 (Archives)
Plaine Magnien, Mauritius

Feed Status: UP

Click on your favorite media player to listen:
Listen with WinAmp to FIMP Twr/App/Ctr #2  Listen with iTunes to FIMP Twr/App/Ctr #2  Click here to listen if using Real Player  Click here to listen if using Windows Media Player

Or simply listen in your browser:

Listen right in your browser(in browser, requires Flash)

FIMP 061800Z 12005KT 9999 BKN017 24/19 Q1018


Listeners: 0 out of 1093 total

FIMP Approach: 119.100
FIMP Tower: 118.100
Mauritius Centre: 129.300

FMEE Tower (Archives)
Sainte-Marie, Reunion

Feed Status: UP

Click on your favorite media player to listen:
Listen with WinAmp to FMEE Tower  Listen with iTunes to FMEE Tower  Click here to listen if using Real Player  Click here to listen if using Windows Media Player

Or simply listen in your browser:

Listen right in your browser(in browser, requires Flash)

FMEE 061800Z AUTO 13012KT 9999 OVC062/// 24/19 Q1017 NOSIG


Listeners: 0 out of 1093 total

Gillot Tower: 118.400

FMEP Info (Archives)
Saint-Pierre, Reunion

Feed Status: UP

Click on your favorite media player to listen:
Listen with WinAmp to FMEP Info  Listen with iTunes to FMEP Info  Click here to listen if using Real Player  Click here to listen if using Windows Media Player

Or simply listen in your browser:

Listen right in your browser(in browser, requires Flash)

FMEP 061730Z AUTO 11014KT 9999 OVC054 25/17 Q1017


Listeners: 0 out of 1093 total

Saint-Pierre Info: 122.400

FMMI Twr/App/Center
Antananarivo, Madagascar

Feed Status: DOWN
Offline since: 2016-12-06 19:53:03 UTC
FMMI 061800Z 11009KT 9999 FEW017CB BKN020 20/16 Q1022 NOSIG

Ivato Approach: 125.700
Ivato Tower: 120.100
Tana Control: 128.900

GOOY Tower/Control
Dakar, Senegal

Feed Status: DOWN
Offline since: 2016-09-15 09:47:03 UTC
GOOY 061730Z 35011KT CAVOK 27/23 Q1011 NOSIG

Dakar Control: 120.500
Dakar Tower: 118.100